sat.trackr.live / text

‹ back to catalog

STARLINK-3370

NORAD 51127 · 2022-005Z

PAYLOAD ACTIVE UNKNOWN

§ Identity

Operator
Country
US
Launch date
2022-01-19
Launch site
AFETR
Launch vehicle
Mass (kg)
RCS (m²)

Purposes: comms

External: N2YO · Heavens-Above · Gunter

§ Orbital elements

Epoch: 2026-09-20T00:45:18.787680Z

Period
94.01 min
Inclination
53.1588°
Eccentricity
0.0001398
Mean motion
15.31704638 rev/d
Perigee alt
469.8 km
Apogee alt
471.7 km
Semi-major
6,848.9 km
B*
1.0001e-5
RAAN
131.9694°
Arg perigee
86.5235°
Mean anomaly
273.5927°
Rev number
25,827

§ Raw data

STARLINK-33701 51127U 22005Z   26263.03146745 -.00000055  00000+0  10001-4 0  99902 51127  53.1588 131.9694 0001398  86.5235 273.5927 15.31704638258278

JSON: /api/v1/satellites/51127 · /tle

For live sub-satellite position, see the globe view (requires WebGL).

§ Visibility from observer

Set your observer location to see the next 7 days of passes ≥ 10°. The values pass through the URL so the page stays shareable.

No JS? Fill the form by hand. The geolocation button needs JavaScript.